Weather History for Lake Charles Regional, LA

Change the Weather History Date:

Sunday, October 20, 2013

  Actual Average Record
Temperature  
Mean Temperature 61 °F 69 °F  
Max Temperature 73 °F 80 °F 93 °F (1927)
Min Temperature 49 °F 58 °F 32 °F (1989)
Degree Days  
Heating Degree Days 4 1  
Month to date heating degree days 9 11  
Since 1 July heating degree days 9 12  
Cooling Degree Days 0 5  
Month to date cooling degree days 168 146  
Year to date cooling degree days 2879 2686  
Growing Degree Days 10 (Base 50)    
Moisture  
Dew Point 51 °F    
Average Humidity 70    
Maximum Humidity 93    
Minimum Humidity 46    
Precipitation  
Precipitation 0.00 in 0.18 in 2.16 in (1949)
Month to date precipitation 1.28 2.99  
Year to date precipitation 49.97 46.47  
Snow  
Snow 0.00 in 0.00 in 0.00 in ()
Month to date snowfall 0.0 0.0  
Since 1 July snowfall 0.0 0.0  
Since 1 September snowfall 0.0 0.0  
Snow Depth 0.00 in    
Sea Level Pressure  
Sea Level Pressure 30.06 in    
Wind  
Wind Speed 4 mph (NE)    
Max Wind Speed 10 mph    
Max Gust Speed 14 mph    
Visibility 10 miles    
Events      
T = Trace of Precipitation, MM = Missing Value Source: NWS Daily Summary

Daily Weather History Graph

Daily Weather History Graph

Search for Another Location

Airport:

Trip Planner

Search our weather history database for the weather conditions in past years. The results will help you decide how hot, cold, wet, or windy it might be!

Date:

Astronomy

Oct. 20, 2013 Rise Set
Actual Time 7:18 AM CDT 6:36 PM CDT
Civil Twilight 6:54 AM CDT 7:00 PM CDT
Nautical Twilight 6:26 AM CDT 7:28 PM CDT
Astronomical Twilight 5:58 AM CDT 7:56 PM CDT
Moon 7:53 PM CDT (10/20) 8:49 AM CDT (10/20)
Length of Visible Light 12h 06m
Length of Day
11h 18m
Full, 97% of the Moon is Illuminated
Oct 20
Full
Oct 26
Last Quarter
Nov 3
New
Nov 9
First Quarter
Nov 17
Full

Hourly Weather History & Observations

Time (CDT) Temp. Dew Point Humidity Pressure Visibility Wind Dir Wind Speed Gust Speed Precip Events Conditions
12:53 AM 52.0 °F 48.0 °F 86% 30.09 in 10.0 mi NNE 5.8 mph - N/A   Clear
1:53 AM 53.1 °F 48.9 °F 86% 30.08 in 10.0 mi NNE 6.9 mph - N/A   Clear
2:53 AM 52.0 °F 48.9 °F 89% 30.07 in 10.0 mi NE 5.8 mph - N/A   Clear
3:53 AM 51.1 °F 48.0 °F 89% 30.07 in 10.0 mi NE 6.9 mph - N/A   Clear
4:53 AM 50.0 °F 48.0 °F 93% 30.08 in 10.0 mi NE 3.5 mph - N/A   Clear
5:53 AM 48.9 °F 46.9 °F 93% 30.09 in 10.0 mi NE 4.6 mph - N/A   Clear
6:53 AM 48.9 °F 46.9 °F 93% 30.10 in 10.0 mi NE 3.5 mph - N/A   Clear
7:53 AM 50.0 °F 48.0 °F 93% 30.11 in 10.0 mi NE 4.6 mph - N/A   Clear
8:53 AM 54.0 °F 50.0 °F 86% 30.12 in 10.0 mi ENE 8.1 mph - N/A   Clear
9:53 AM 57.9 °F 50.0 °F 75% 30.12 in 10.0 mi East 8.1 mph - N/A   Clear
10:53 AM 62.1 °F 51.1 °F 67% 30.13 in 10.0 mi East 6.9 mph - N/A   Clear
11:53 AM 64.9 °F 50.0 °F 58% 30.12 in 10.0 mi Variable 4.6 mph - N/A   Clear
12:53 PM 69.1 °F 53.1 °F 57% 30.08 in 10.0 mi Variable 3.5 mph - N/A   Clear
1:53 PM 71.1 °F 50.0 °F 47% 30.05 in 10.0 mi Variable 3.5 mph - N/A   Clear
2:53 PM 72.0 °F 50.0 °F 46% 30.03 in 10.0 mi Calm Calm - N/A   Clear
3:53 PM 73.0 °F 51.1 °F 46% 30.02 in 10.0 mi Calm Calm - N/A   Clear
4:53 PM 71.1 °F 52.0 °F 51% 30.01 in 10.0 mi Variable 4.6 mph - N/A   Clear
5:53 PM 69.1 °F 57.0 °F 65% 29.99 in 10.0 mi Calm Calm - N/A   Clear
6:53 PM 63.0 °F 57.0 °F 81% 30.00 in 10.0 mi SW 3.5 mph - N/A   Clear
7:53 PM 59.0 °F 55.9 °F 90% 30.01 in 10.0 mi Calm Calm - N/A   Clear
8:53 PM 57.9 °F 55.9 °F 93% 30.01 in 10.0 mi Calm Calm - N/A   Clear
9:53 PM 57.0 °F 55.9 °F 96% 30.01 in 9.0 mi Calm Calm - N/A   Clear
10:53 PM 57.0 °F 54.0 °F 89% 30.02 in 10.0 mi Calm Calm - N/A   Clear
11:53 PM 60.1 °F 55.0 °F 83% 30.02 in 10.0 mi Calm Calm - N/A   Overcast